Location: Austin
(30.3000°N, 97.7500°W)
Time: 04:06:31
(UTC-06:00)

BREEZE-M DEB (TANK) - Pass Details

Date: 20 November 2023
Orbit: 288 x 15073 km, 49.5° (Epoch: 04 December)

Event Time Altitude Azimuth Distance (km) Brightness Sun altitude
Rises 18:40:29 0° 183° (S) 2,287 5.7 -14.8°
Reaches altitude 10° 18:42:08 10° 166° (SSE) 1,737 4.9 -15.1°
Maximum altitude 18:45:08 24° 108° (ESE) 1,664 4.3 -15.8°
Enters shadow 18:46:21 22° 90° (E) 2,000 4.5 -16.0°
